Previsão horária em Jubail

Hoje, 21 Junho, Segunda-feira

Tempo Temperatura Precipitação Vento Pressão Humidade
00:00 +35°C° 0 mm 2 m/s 751 mmHg 28%
01:00 +35°C° 0 mm 3 m/s 751 mmHg 24%
02:00 +35°C° 0 mm 4 m/s 750 mmHg 20%
03:00 +35°C° 0 mm 4 m/s 750 mmHg 16%
04:00 +35°C° 0 mm 5 m/s 751 mmHg 20%
05:00 +34°C° 0 mm 5 m/s 751 mmHg 24%
06:00 +34°C° 0 mm 6 m/s 751 mmHg 28%
07:00 +38°C° 0 mm 6 m/s 751 mmHg 24%
08:00 +40°C° 0 mm 7 m/s 752 mmHg 21%
09:00 +43°C° 0 mm 7 m/s 752 mmHg 17%
10:00 +44°C° 0 mm 7 m/s 752 mmHg 16%
11:00 +45°C° 0 mm 7 m/s 751 mmHg 14%
12:00 +46°C° 0 mm 6 m/s 751 mmHg 12%
13:00 +46°C° 0 mm 6 m/s 751 mmHg 11%
14:00 +46°C° 0 mm 6 m/s 751 mmHg 11%
15:00 +46°C° 0 mm 6 m/s 750 mmHg 11%
16:00 +43°C° 0 mm 5 m/s 750 mmHg 13%
17:00 +42°C° 0 mm 4 m/s 750 mmHg 16%
18:00 +39°C° 0 mm 3 m/s 750 mmHg 18%
19:00 +38°C° 0 mm 2 m/s 750 mmHg 18%
20:00 +38°C° 0 mm 2 m/s 750 mmHg 17%
21:00 +36°C° 0 mm 1 m/s 750 mmHg 16%
22:00 +37°C° 0 mm 2 m/s 750 mmHg 14%
23:00 +37°C° 0 mm 3 m/s 750 mmHg 13%

Amanhã, 22 Junho, Terça-feira

Tempo Temperatura Precipitação Vento Pressão Humidade
00:00 +39°C° 0 mm 5 m/s 749 mmHg 11%
01:00 +37°C° 0 mm 5 m/s 749 mmHg 12%
02:00 +37°C° 0 mm 4 m/s 749 mmHg 12%
03:00 +36°C° 0 mm 4 m/s 749 mmHg 12%
04:00 +36°C° 0 mm 4 m/s 750 mmHg 19%
05:00 +35°C° 0 mm 4 m/s 750 mmHg 25%
06:00 +35°C° 0 mm 4 m/s 751 mmHg 32%
07:00 +39°C° 0 mm 5 m/s 751 mmHg 26%
08:00 +42°C° 0 mm 6 m/s 751 mmHg 20%
09:00 +45°C° 0 mm 7 m/s 751 mmHg 15%
10:00 +46°C° 0 mm 7 m/s 751 mmHg 13%
11:00 +47°C° 0 mm 7 m/s 751 mmHg 12%
12:00 +47°C° 0 mm 7 m/s 751 mmHg 11%
13:00 +47°C° 0 mm 6 m/s 751 mmHg 11%
14:00 +47°C° 0 mm 5 m/s 750 mmHg 11%
15:00 +47°C° 0 mm 5 m/s 750 mmHg 10%
16:00 +44°C° 0 mm 4 m/s 750 mmHg 13%
17:00 +43°C° 0 mm 4 m/s 750 mmHg 15%
18:00 +40°C° 0 mm 3 m/s 749 mmHg 17%
19:00 +39°C° 0 mm 3 m/s 749 mmHg 17%
20:00 +38°C° 0 mm 2 m/s 750 mmHg 16%
21:00 +38°C° 0 mm 2 m/s 750 mmHg 15%
22:00 +38°C° 0 mm 2 m/s 750 mmHg 14%
23:00 +37°C° 0 mm 3 m/s 750 mmHg 13%

Depois de amanhã, 23 Junho, Quarta-feira

Tempo Temperatura Precipitação Vento Pressão Humidade
00:00 +37°C° 0 mm 3 m/s 750 mmHg 13%
01:00 +37°C° 0 mm 4 m/s 750 mmHg 13%
02:00 +37°C° 0 mm 4 m/s 750 mmHg 14%
03:00 +37°C° 0 mm 4 m/s 750 mmHg 14%
04:00 +36°C° 0 mm 5 m/s 750 mmHg 22%
05:00 +36°C° 0 mm 6 m/s 751 mmHg 31%
06:00 +35°C° 0 mm 6 m/s 751 mmHg 39%
07:00 +38°C° 0 mm 6 m/s 751 mmHg 36%
08:00 +40°C° 0 mm 6 m/s 752 mmHg 32%
09:00 +42°C° 0 mm 6 m/s 752 mmHg 29%
10:00 +44°C° 0 mm 6 m/s 752 mmHg 25%
11:00 +43°C° 0 mm 5 m/s 752 mmHg 21%
12:00 +45°C° 0 mm 5 m/s 752 mmHg 18%
13:00 +44°C° 0 mm 4 m/s 752 mmHg 17%
14:00 +44°C° 0 mm 4 m/s 752 mmHg 17%
15:00 +44°C° 0 mm 3 m/s 751 mmHg 17%
16:00 +42°C° 0 mm 3 m/s 751 mmHg 20%
17:00 +40°C° 0 mm 2 m/s 751 mmHg 24%
18:00 +38°C° 0 mm 2 m/s 751 mmHg 27%
19:00 +38°C° 0 mm 2 m/s 751 mmHg 26%
20:00 +37°C° 0 mm 2 m/s 751 mmHg 24%
21:00 +36°C° 0 mm 2 m/s 751 mmHg 23%
22:00 +35°C° 0 mm 2 m/s 751 mmHg 23%
23:00 +34°C° 0 mm 1 m/s 751 mmHg 23%

24 Junho, Quinta-feira

Tempo Temperatura Precipitação Vento Pressão Humidade
00:00 +33°C° 0 mm 1 m/s 752 mmHg 23%
01:00 +35°C° 0 mm 2 m/s 751 mmHg 21%
02:00 +35°C° 0 mm 3 m/s 751 mmHg 19%
03:00 +35°C° 0 mm 4 m/s 751 mmHg 18%
04:00 +35°C° 0 mm 5 m/s 751 mmHg 23%
05:00 +35°C° 0 mm 5 m/s 752 mmHg 29%
06:00 +35°C° 0 mm 6 m/s 752 mmHg 35%
07:00 +38°C° 0 mm 6 m/s 752 mmHg 29%
08:00 +40°C° 0 mm 6 m/s 752 mmHg 24%
09:00 +42°C° 0 mm 6 m/s 752 mmHg 19%
10:00 +44°C° 0 mm 6 m/s 752 mmHg 18%
11:00 +45°C° 0 mm 6 m/s 752 mmHg 16%
12:00 +46°C° 0 mm 6 m/s 752 mmHg 15%
13:00 +45°C° 0 mm 5 m/s 752 mmHg 15%
14:00 +45°C° 0 mm 5 m/s 751 mmHg 14%
15:00 +44°C° 0 mm 4 m/s 751 mmHg 14%
16:00 +43°C° 0 mm 3 m/s 751 mmHg 16%
17:00 +41°C° 0 mm 2 m/s 751 mmHg 18%
18:00 +39°C° 0 mm 1 m/s 751 mmHg 20%
19:00 +37°C° 0 mm 1 m/s 751 mmHg 20%
20:00 +36°C° 0 mm 1 m/s 751 mmHg 20%
21:00 +35°C° 0 mm 1 m/s 751 mmHg 20%
22:00 +34°C° 0 mm 1 m/s 751 mmHg 19%
23:00 +34°C° 0 mm 1 m/s 751 mmHg 19%

25 Junho, Sexta-feira

Tempo Temperatura Precipitação Vento Pressão Humidade
00:00 +33°C° 0 mm 1 m/s 751 mmHg 18%
01:00 +33°C° 0 mm 1 m/s 750 mmHg 18%
02:00 +33°C° 0 mm 1 m/s 750 mmHg 19%
03:00 +32°C° 0 mm 1 m/s 750 mmHg 20%
04:00 +34°C° 0 mm 2 m/s 750 mmHg 18%
05:00 +34°C° 0 mm 3 m/s 750 mmHg 16%
06:00 +35°C° 0 mm 3 m/s 751 mmHg 14%
07:00 +37°C° 0 mm 3 m/s 751 mmHg 12%
08:00 +40°C° 0 mm 3 m/s 751 mmHg 11%
09:00 +43°C° 0 mm 2 m/s 751 mmHg 9%
10:00 +45°C° 0 mm 2 m/s 750 mmHg 9%
11:00 +46°C° 0 mm 2 m/s 750 mmHg 8%
12:00 +48°C° 0 mm 2 m/s 750 mmHg 7%
13:00 +48°C° 0 mm 3 m/s 750 mmHg 7%
14:00 +48°C° 0 mm 3 m/s 749 mmHg 8%
15:00 +49°C° 0 mm 4 m/s 749 mmHg 8%
16:00 +46°C° 0 mm 3 m/s 749 mmHg 10%
17:00 +44°C° 0 mm 3 m/s 749 mmHg 12%
18:00 +42°C° 0 mm 2 m/s 748 mmHg 13%
19:00 +41°C° 0 mm 2 m/s 749 mmHg 13%
20:00 +40°C° 0 mm 2 m/s 749 mmHg 13%
21:00 +38°C° 0 mm 2 m/s 749 mmHg 13%
22:00 +37°C° 0 mm 2 m/s 749 mmHg 16%
23:00 +36°C° 0 mm 2 m/s 749 mmHg 20%

26 Junho, Sábado

Tempo Temperatura Precipitação Vento Pressão Humidade
00:00 +34°C° 0 mm 2 m/s 749 mmHg 24%
01:00 +33°C° 0 mm 1 m/s 749 mmHg 24%
02:00 +32°C° 0 mm 1 m/s 749 mmHg 25%
03:00 +32°C° 0 mm 1 m/s 748 mmHg 26%
04:00 +33°C° 0 mm 1 m/s 749 mmHg 22%
05:00 +35°C° 0 mm 2 m/s 749 mmHg 18%
06:00 +36°C° 0 mm 2 m/s 749 mmHg 14%
07:00 +39°C° 0 mm 2 m/s 749 mmHg 12%
08:00 +42°C° 0 mm 2 m/s 749 mmHg 10%
09:00 +45°C° 0 mm 2 m/s 749 mmHg 9%
10:00 +46°C° 0 mm 2 m/s 749 mmHg 8%
11:00 +47°C° 0 mm 2 m/s 749 mmHg 7%
12:00 +48°C° 0 mm 3 m/s 749 mmHg 6%
13:00 +48°C° 0 mm 3 m/s 748 mmHg 7%
14:00 +48°C° 0 mm 4 m/s 748 mmHg 9%
15:00 +48°C° 0 mm 4 m/s 748 mmHg 10%
16:00 +45°C° 0 mm 3 m/s 748 mmHg 12%
17:00 +44°C° 0 mm 3 m/s 747 mmHg 14%
18:00 +41°C° 0 mm 2 m/s 747 mmHg 17%
19:00 +40°C° 0 mm 2 m/s 748 mmHg 19%
20:00 +38°C° 0 mm 2 m/s 748 mmHg 22%
21:00 +37°C° 0 mm 2 m/s 748 mmHg 25%
22:00 +36°C° 0 mm 2 m/s 748 mmHg 28%
23:00 +35°C° 0 mm 2 m/s 748 mmHg 30%
Mostrar mais

Necessitamos do seu Consentimento

A Meteoprog e os seus Fornecedores de Serviços podem armazenar e aceder a dados pessoais como cookies, identificadores do dispositivo ou outras tecnologias semelhantes existentes no seu dispositivo e processar estes dados para personalizar conteúdos e anúncios, assim como funcionalidades nas redes sociais e análise de tráfego.

  • Armazenar e/ou aceder a informações no seu dispositivo

    Os cookies, identificadores do dispositivo ou outras informações podem ser armazenados ou acedidos no seu dispositivo, para os fins acima indicados.

  • Anúncios e conteúdos personalizados, medição de anúncios e conteúdos, dados sobre o público-alvo e desenvolvimento de produtos

    Os anúncios e os conteúdos podem ser personalizados com base num perfil. Podem ser adicionados dados adicionais para uma maior personalização dos anúncios e dos conteúdos. A eficácia dos anúncios e dos conteúdos pode ser medida. Podem ser obtidas informações sobre o público que visualizou os anúncios e os conteúdos. Estes dados podem ser usados para desenvolver ou melhorar sistemas, softwares ou a experiência do utilizador.

Ao clicar em "Eu concordo”, permitirá o uso de cookies, identificadores do dispositivo e web beacons mencionados ou outras tecnologias semelhantes. As configurações do navegador do seu dispositivo podem ser alteradas.

Para certos fins, podem ser invocados interesses legítimos ao invés de consentimento. Pode ler mais informação sobre este assunto na nossa Política de Privacidade e Cookies.